SCP
0 0 0 0 1 1 1 1 1 0 1 1 2 2 2 2 2 2 2 1 0 0 0 1 1 1 1 1 1 1 1 1 1 1 1 1 1 1
0 0 0 0 1 1 1 1 1 1 1 1 2 2 2 2 2 2 2 1 1 0 0 0 1 1 1 1 1 1 1 1 1 1 1 1 1 1
0 0 0 0 0 1 1 1 1 1 1 1 1 2 2 2 2 2 2 2 1 0 0 0 0 0 1 1 1 1 1 1 1 1 1 1 1 1
0 0 0 0 0 0 1 1 1 1 1 1 1 1 2 2 2 2 2 2 1 1 0 0 0 0 0 0 0 0 0 0 0 0 1 1 1 1
0 0 0 0 0 0 0 0 1 1 1 1 1 2 2 2 2 2 2 2 2 1 0 0 0 0 0 0 0 0 0 0 0 0 0 0 0 0
0 0 0 0 0 0 0 0 0 1 1 1 1 1 2 2 2 2 2 2 2 1 1 1 0 0 0 0 0 0 0 0 0 0 0 0 0 0
0 0 0 0 0 0 0 0 0 0 1 1 1 1 1 2 2 2 2 2 2 2 2 2 1 1 1 0 0 0 0 0 0 0 0 0 0 0
0 0 0 0 0 0 0 0 0 0 0 0 1 1 1 2 2 2 2 2 2 2 3 2 2 1 1 1 0 0 0 0 0 0 0 0 0 0
0 0 0 0 0 0 0 0 0 0 0 0 0 1 1 1 2 2 2 2 2 2 3 2 2 2 2 1 0 0 0 0 0 0 0 0 0 0
0 0 0 0 0 0 0 0 0 0 0 0 0 0 1 1 2 2 2 2 2 2 2 3 3 3 2 1 0 0 0 0 0 0 0 0 0 0
0 0 0 0 0 0 0 0 0 0 0 0 0 0 0 1 1 2 2 2 2 2 3 3 3 3 2 1 0 0 0 0 0 0 0 0 0 0
0 0 0 0 0 0 0 0 0 0 0 0 0 0 0 0 1 1 2 2 2 2 2 2 2 2 1 1 1 0 0 0 0 0 0 0 0 0
0 0 0 0 0 0 0 0 0 0 0 0 1 1 1 1 1 1 1 2 2 2 2 2 2 1 1 1 1 1 0 0 0 0 0 0 0 0
0 0 0 0 0 0 0 0 0 0 0 1 1 1 1 1 1 1 1 2 2 2 2 2 2 1 1 1 1 0 0 0 0 0 0 0 0 0
0 0 0 0 0 0 0 0 0 0 0 1 1 1 1 1 1 1 1 2 2 2 2 2 2 1 1 1 0 0 0 0 0 0 0 0 0 0
0 0 0 0 0 0 0 0 0 0 1 1 1 1 1 1 1 1 1 1 2 1 1 2 2 1 1 1 1 0 0 0 0 0 0 0 0 0
0 0 0 0 0 0 0 0 0 0 1 1 1 1 1 1 1 1 1 1 1 1 1 1 1 1 1 1 1 0 0 0 0 0 0 0 0 0
0 0 0 0 0 0 0 0 0 0 0 1 1 1 1 1 1 1 1 1 1 1 1 1 1 1 1 1 0 0 0 1 1 0 0 0 0 0
0 0 0 0 0 0 0 0 0 0 0 1 1 1 1 0 1 1 1 1 1 1 1 1 1 1 1 0 0 0 0 1 0 0 0 0 0 0
0 0 0 0 0 0 0 0 0 0 0 1 1 1 1 0 0 0 0 0 0 0 1 1 1 1 1 0 0 0 0 0 0 0 0 0 0 0
0 0 0 0 0 0 0 0 0 0 0 0 0 0 0 0 0 0 0 0 0 0 0 1 0 0 1 1 0 0 0 0 0 0 0 0 0 0
0 0 0 0 0 0 0 0 0 0 0 0 0 0 0 0 0 0 0 0 0 0 0 1 0 0 0 1 0 0 0 0 0 0 0 0 0 0
0 0 0 0 0 0 0 0 0 0 0 0 0 0 0 0 0 0 0 0 0 0 0 1 1 0 0 0 0 0 0 0 0 0 0 0 0 0
Wind_Speed
10 10 9 8 7 7 7 7 7 8 8 6 4 4 4 5 5 7 9 11 16 17 18 19 19 20 20 20 19 19 18 17 17 17 17 17 17 17
9 10 9 9 7 7 7 7 7 8 9 6 5 5 4 5 5 8 8 9 13 15 16 17 18 18 18 19 19 18 17 17 16 16 16 15 14 14
11 11 11 11 9 8 8 8 8 8 9 8 7 6 6 6 5 6 6 7 8 14 14 15 16 17 17 17 17 17 17 16 16 15 15 14 13 13
12 12 12 10 11 10 9 10 9 8 9 10 8 7 7 6 5 6 6 6 6 10 13 13 14 15 16 16 16 16 16 15 15 14 14 14 13 12
12 12 12 13 12 11 11 10 9 9 9 9 9 6 6 5 5 5 5 4 5 6 10 11 12 13 14 15 15 15 15 14 14 14 13 12 12 11
12 12 13 13 13 12 11 11 10 10 9 9 9 7 6 5 4 4 4 4 4 5 5 6 9 10 12 13 14 14 14 14 14 13 12 12 11 10
12 12 13 13 11 10 10 10 10 9 9 9 9 8 6 5 5 4 4 4 3 4 5 6 7 7 8 11 13 14 14 13 13 13 12 11 11 10
12 12 12 13 13 13 14 14 13 12 11 9 9 9 7 7 5 4 4 5 4 5 5 5 5 6 7 7 11 14 14 13 13 12 12 11 10 10
12 11 10 10 10 12 14 17 17 17 15 12 12 10 9 7 6 7 6 5 4 5 6 5 5 5 5 6 12 13 13 13 12 12 11 11 10 10
12 12 11 12 11 10 11 12 13 14 15 14 13 12 10 7 7 7 6 4 3 4 6 4 5 4 5 6 11 12 12 12 12 12 12 11 10 10
11 11 11 11 8 7 11 12 12 12 12 12 10 9 7 5 5 6 6 6 6 5 5 4 5 5 4 5 7 11 11 11 11 12 12 12 12 11
9 9 9 10 8 6 11 12 12 12 11 10 11 10 10 10 10 9 8 7 6 5 5 5 6 5 5 4 5 7 8 9 11 11 12 13 13 9
8 8 6 7 9 8 10 12 10 9 9 9 9 9 10 9 10 10 9 7 7 4 6 6 6 6 5 5 4 5 7 7 8 8 10 11 9 6
9 9 6 3 7 9 10 10 9 8 9 8 8 9 8 8 8 9 9 8 6 5 6 7 5 7 7 6 6 6 6 7 7 7 8 9 5 4
9 9 8 6 7 10 13 12 10 10 10 9 9 8 8 7 7 7 8 7 7 6 7 7 6 6 7 7 8 7 6 6 7 8 8 8 8 8
9 8 10 12 11 10 8 10 11 10 9 9 8 8 7 7 7 7 8 8 7 6 6 7 7 9 6 7 8 9 8 8 9 8 8 8 7 7
7 7 7 7 7 8 8 8 8 9 9 9 8 8 8 8 7 7 8 8 8 7 7 6 5 4 5 7 9 9 9 8 9 9 9 8 7 7
7 8 7 7 7 7 7 7 8 9 9 9 8 8 8 8 8 7 7 8 8 8 8 7 7 6 4 1 4 9 9 9 9 10 9 8 9 8
7 8 7 7 7 7 7 7 7 7 7 8 8 8 8 8 8 8 8 8 8 8 8 8 8 8 8 6 4 5 8 9 10 9 9 8 9 9
7 7 7 6 6 6 6 6 6 6 7 7 8 8 8 8 8 8 8 9 9 9 8 8 9 9 8 7 6 6 7 9 10 10 9 7 6 8
5 6 6 6 6 6 5 5 6 6 7 7 7 8 8 8 9 9 8 9 8 8 9 9 8 8 5 5 6 6 7 6 6 8 10 9 9 9
5 5 5 5 5 5 5 5 6 6 7 7 7 7 8 9 9 10 9 9 9 9 9 8 9 8 7 7 8 9 8 7 6 7 6 3 6 9
5 5 5 5 4 4 5 6 6 6 7 7 8 8 8 9 9 9 9 9 8 9 9 9 9 8 8 7 8 8 11 11 8 7 4 5 5 5
Wind_Direction
261 251 249 256 254 258 262 263 271 278 273 262 252 247 252 253 238 233 231 211 206 206 207 207 206 203 202 201 202 204 205 206 209 210 212 213 215 218
261 267 265 260 255 251 253 256 258 265 273 276 270 268 274 280 243 241 233 208 206 205 205 204 203 201 199 198 198 199 200 201 203 205 207 208 210 212
263 258 254 257 260 258 250 249 251 254 263 268 268 267 259 267 267 248 231 217 207 199 199 199 199 198 196 194 194 194 195 197 199 200 201 202 204 207
264 263 260 255 249 254 256 253 253 254 259 267 270 264 252 252 252 244 230 215 213 188 190 193 194 195 193 190 189 189 191 193 193 194 195 196 197 200
268 264 261 259 255 251 252 253 251 249 247 256 261 258 253 249 246 237 223 214 211 180 179 184 186 187 187 185 183 184 186 187 187 188 187 187 190 193
268 265 262 259 255 253 252 251 254 256 253 251 256 253 243 235 231 229 218 200 198 184 170 168 170 174 179 178 179 181 183 184 183 182 182 183 186 188
268 264 259 258 264 264 265 260 255 252 251 248 248 249 241 225 219 222 221 191 190 185 165 164 166 172 176 175 174 175 174 175 175 176 178 179 181 183
270 266 262 250 244 239 250 259 265 262 259 256 252 248 245 241 227 215 218 199 196 184 173 167 169 167 173 176 164 166 168 168 168 170 171 172 173 174
271 268 263 259 244 245 234 231 240 244 251 259 261 257 252 237 235 222 216 214 208 182 171 163 164 159 154 138 146 156 159 161 160 160 162 163 165 167
268 265 263 264 259 256 256 249 243 236 231 234 246 254 257 247 234 235 224 216 200 191 182 169 162 152 139 137 143 148 152 154 155 156 155 154 151 149
266 264 264 263 256 244 255 257 256 250 237 234 246 252 258 249 238 233 217 204 195 185 186 167 153 139 137 140 140 143 145 148 150 150 149 146 143 140
269 263 249 250 268 243 251 254 254 250 247 230 223 228 233 227 216 223 222 214 199 185 177 166 158 150 141 138 145 149 143 140 142 145 148 148 156 159
279 274 265 210 226 237 250 258 263 271 258 247 238 230 226 225 219 214 217 216 207 194 169 166 165 164 148 138 142 153 153 151 150 147 151 157 174 182
278 278 283 204 222 234 242 254 263 267 254 246 240 232 226 223 219 212 204 210 216 203 176 172 170 170 156 150 146 150 155 159 159 155 153 154 151 114
274 289 295 278 252 240 235 238 240 240 240 238 236 234 231 225 217 202 194 195 201 194 184 186 181 174 172 162 152 153 154 164 168 160 158 167 169 165
259 262 246 245 247 256 244 223 228 234 235 236 236 233 230 222 213 201 193 188 188 183 184 189 190 183 181 170 160 161 162 163 169 168 163 167 173 179
305 280 267 255 243 238 237 234 228 225 226 229 228 227 223 217 212 203 195 192 193 186 175 174 180 182 186 172 168 170 168 164 166 166 166 167 175 180
272 263 262 259 256 248 238 230 226 225 224 222 221 221 222 215 207 204 198 198 196 189 180 170 163 156 148 141 174 171 171 166 162 168 175 172 173 178
251 259 261 261 258 251 242 235 228 222 220 218 216 215 217 214 207 203 199 199 198 193 182 173 173 175 173 170 169 191 172 161 160 168 182 182 176 173
246 257 259 256 258 255 245 235 229 221 214 213 212 212 212 211 206 204 202 199 194 189 184 180 184 189 187 175 159 166 178 167 167 171 175 177 146 125
263 261 260 257 255 252 245 232 222 219 213 208 210 207 208 209 206 204 202 197 198 193 191 187 182 179 177 156 150 150 160 158 158 168 167 165 160 165
279 274 269 260 249 245 241 233 220 213 210 209 210 207 205 208 205 204 201 198 198 199 195 179 165 172 183 183 173 160 151 147 115 97 94 103 176 183
276 277 276 272 254 239 237 233 228 217 210 210 207 206 204 205 204 201 202 204 200 196 189 177 172 178 183 181 172 160 157 157 156 155 136 43 55 86